Вернуться в каталог

THOR ABLESTAR DEB

АктивенLEO
NORAD 403·DEBRIS·🇺🇸 United States

Запущен Jun 29, 1961 с Cape Canaveral Space Force Station

Loading…

Ближайшие Пролёты (ближайшие 24 часа)

TLE

СвежийSource: Space-Track

Эпоха: Sep 8, 2026, 23:50 UTC

1 00403U 61015EC  26251.99345958  .00000002  00000-0  72420-4 0  9999
2 00403  66.8396  85.2453 0016156 132.5564  20.2171 13.81247059282723

Отслеживайте THOR ABLESTAR DEB в реальном времени с AllMySat

Download on the App Store